Location: Cran-Gévrier
(45.9039°N, 6.1012°E)
Time: 00:54:06
(UTC+00:00)

Okean-O - Visible Passes

Search period start: 25 July 2024 00:00
Search period end: 04 August 2024 00:00
Orbit: 632 x 635 km, 98.0° (Epoch: 24 July)

Date Brightness Start Highest point End Pass type
(mag) Time Alt. Az. Time Alt. Az. Time Alt. Az.
25 Jul 4.2 20:47:04 10° SSW 20:51:00 32° W 20:54:58 10° NNW visible
26 Jul 4.9 21:09:25 10° SW 21:12:39 20° W 21:15:54 10° NW visible
27 Jul 2.6 19:53:06 10° SSE 19:57:29 73° ENE 20:01:53 10° N visible
27 Jul 5.3 21:32:36 10° WSW 21:34:21 12° W 21:36:07 10° WNW visible
28 Jul 2.9 20:14:34 10° S 20:18:57 68° WSW 20:23:21 10° NNW visible
29 Jul 3.8 20:36:21 10° S 20:40:29 40° W 20:44:40 10° NNW visible
30 Jul 4.6 20:58:27 10° SSW 21:02:05 25° W 21:05:44 10° NW visible
31 Jul 2.8 19:42:43 10° SSE 19:47:00 56° ENE 19:51:20 10° N visible
31 Jul 5.2 21:21:06 10° SW 21:23:44 16° W 21:26:24 10° NW visible
01 Aug 2.6 20:04:02 10° SSE 20:08:26 87° W 20:12:52 10° NNW visible
02 Aug 3.3 20:25:38 10° S 20:29:55 52° W 20:34:15 10° NNW visible
03 Aug 4.2 20:47:32 10° SSW 20:51:28 32° W 20:55:26 10° NNW visible
